Hourly Data Report for October 24, 2016

All times are specified in Local Standard Time (LST). Add 1 hour to adjust for Daylight Saving Time where and when it is observed.

FREDERICTON
NEW BRUNSWICK

45°52'08.000" N
66°32'14.000" W
20.70 m
8101505
71700
YFC

Download Data

Hourly Data (October 2016)
Hourly Data Report for October 24, 2016
Temp Definition
°C
Dew Point Temp Definition
°C
Rel Hum Definition
%
Wind Dir Definition
10's deg

Wind Spd Definition
km/h
Visibility Definition
km
Stn Press Definition
kPa
Hmdx Definition


Wind Chill Definition


Weather Definition


TIME
00:00 Legend Double Dagger 3.9 -0.4 74 23 21 16.1 99.49     LegendNANA
01:00 Legend Double Dagger 5.0 -0.1 70 23 18 16.1 99.54     LegendNANA
02:00 Legend Double Dagger 5.2 1.5 77 21 22 16.1 99.59     LegendNANA
03:00 Legend Double Dagger 5.5 1.5 76 22 22 16.1 99.62     LegendNANA
04:00 Legend Double Dagger 5.7 1.4 74 21 15 16.1 99.66     LegendNANA
05:00 Legend Double Dagger 5.7 0.9 71 22 21 16.1 99.74     LegendNANA
06:00 Legend Double Dagger 5.2 0.6 72 22 18 16.1 99.78     LegendNANA
07:00 Legend Double Dagger 4.5 0.5 75 22 17 16.1 99.81     LegendNANA
08:00 Legend Double Dagger 5.0 0.9 75 22 22 16.1 99.89     LegendNANA
09:00 Legend Double Dagger 7.4 0.6 62 24 18 16.1 99.94     LegendNANA
10:00 Legend Double Dagger 8.2 0.2 57 25 21 16.1 99.93     LegendNANA
11:00 Legend Double Dagger 7.4 -1.0 55 25 28 16.1 99.91     LegendNANA
12:00 Legend Double Dagger 7.5 -0.7 56 26 28 16.1 99.91     LegendNANA
13:00 Legend Double Dagger 7.5 -1.5 53 23 35 16.1 99.88     LegendNANA
14:00 Legend Double Dagger 6.4 0.0 64 28 13 16.1 99.96     LegendNANA
15:00 Legend Double Dagger 6.1 0.0 65 24 18 16.1 99.98     LegendNANA
16:00 Legend Double Dagger 6.8 -2.7 51 25 18 16.1 100.01     LegendNANA
17:00 Legend Double Dagger 5.9 -2.7 54 25 24 16.1 100.09     LegendNANA
18:00 Legend Double Dagger 4.9 -2.0 61 24 13 16.1 100.18     LegendNANA
19:00 Legend Double Dagger 2.6 -1.6 74 22 13 16.1 100.23     LegendNANA
20:00 Legend Double Dagger 1.8 -1.6 78 21 9 16.1 100.26     LegendNANA
21:00 Legend Double Dagger 2.3 -1.3 77 23 9 16.1 100.32     LegendNANA
22:00 Legend Double Dagger 3.2 -1.4 72 24 11 16.1 100.34     LegendNANA
23:00 Legend Double Dagger 3.5 -1.8 68 25 15 16.1 100.37     LegendNANA

Notes on Data Quality.

Legend

  • E = Estimated
  • M = Missing
  • NA = Not Available
  • ‡ = Partner data that is not subject to review by the National Climate Archives
Date modified: